Visibility
15.0 15.0 15.0 15.0 15.0 15.0 15.0 15.0 11.9 15.0 15.0 14.1 15.0 15.0 15.0 14.7 6.3 4.3 2.3 1.1 0.3 0.8 0.4 0.3 0.4 0.9 1.0 0.3 0.1 0.1 0.2 0.1 0.1 0.1 0.1 0.0 2.4 7.0 14.1 15.0 15.0 14.6 15.0 15.0
15.0 15.0 15.0 15.0 15.0 15.0 15.0 15.0 15.0 15.0 4.5 15.0 15.0 14.9 0.4 0.2 0.5 0.5 0.4 15.0 6.7 6.6 15.0 15.0 15.0 15.0 15.0 15.0 0.7 0.9 0.1 0.1 0.1 0.1 0.1 0.1 0.1 0.1 1.1 2.1 3.2 2.0 14.8 11.9
15.0 15.0 15.0 14.9 15.0 15.0 15.0 15.0 15.0 15.0 15.0 15.0 4.4 0.3 0.3 1.1 0.9 0.9 15.0 15.0 15.0 15.0 15.0 15.0 10.3 15.0 15.0 15.0 15.0 15.0 15.0 15.0 4.1 0.2 0.1 0.1 0.1 0.2 0.1 0.3 0.4 0.3 0.1 0.3
15.0 15.0 2.0 15.0 15.0 15.0 15.0 15.0 15.0 13.1 14.3 15.0 12.5 0.4 1.5 0.8 9.5 15.0 15.0 7.1 15.0 15.0 15.0 15.0 15.0 15.0 15.0 15.0 15.0 15.0 15.0 15.0 15.0 15.0 12.9 5.4 1.7 0.5 0.1 0.1 0.1 0.1 0.1 0.1
9.3 14.1 15.0 15.0 15.0 15.0 15.0 15.0 15.0 15.0 15.0 15.0 5.4 14.3 0.2 14.6 15.0 15.0 15.0 15.0 14.7 15.0 15.0 15.0 15.0 15.0 15.0 15.0 15.0 15.0 15.0 15.0 15.0 15.0 15.0 14.4 11.1 8.8 8.1 2.0 1.3 0.8 0.8 1.0
2.1 0.2 1.8 15.0 15.0 15.0 15.0 14.3 15.0 15.0 15.0 15.0 15.0 11.2 0.6 15.0 15.0 15.0 15.0 15.0 15.0 15.0 15.0 15.0 15.0 15.0 15.0 15.0 15.0 15.0 12.9 15.0 15.0 15.0 15.0 14.1 5.7 6.7 15.0 15.0 12.0 14.8 14.6 6.6
3.9 1.2 15.0 15.0 15.0 15.0 4.4 14.9 15.0 15.0 15.0 15.0 13.6 9.0 15.0 15.0 15.0 15.0 15.0 15.0 15.0 15.0 15.0 15.0 15.0 15.0 15.0 15.0 15.0 15.0 15.0 15.0 15.0 15.0 15.0 15.0 15.0 15.0 15.0 15.0 15.0 15.0 15.0 15.0
4.3 0.2 1.1 15.0 15.0 13.3 15.0 8.5 15.0 15.0 15.0 15.0 8.5 15.0 15.0 15.0 15.0 15.0 15.0 15.0 15.0 15.0 15.0 15.0 15.0 15.0 15.0 15.0 15.0 15.0 15.0 15.0 15.0 15.0 15.0 15.0 15.0 15.0 15.0 15.0 15.0 15.0 15.0 15.0
15.0 15.0 15.0 15.0 15.0 15.0 15.0 15.0 15.0 15.0 15.0 15.0 14.9 15.0 15.0 15.0 15.0 15.0 15.0 15.0 15.0 15.0 15.0 15.0 15.0 15.0 15.0 15.0 15.0 15.0 15.0 15.0 15.0 15.0 15.0 15.0 15.0 15.0 15.0 15.0 15.0 15.0 15.0 15.0
15.0 15.0 15.0 15.0 15.0 15.0 15.0 15.0 15.0 15.0 15.0 15.0 15.0 15.0 15.0 15.0 15.0 15.0 15.0 15.0 15.0 15.0 15.0 15.0 15.0 15.0 15.0 15.0 15.0 15.0 15.0 15.0 15.0 15.0 13.8 15.0 15.0 15.0 15.0 15.0 15.0 15.0 13.0 10.1
15.0 15.0 15.0 15.0 15.0 15.0 15.0 15.0 15.0 15.0 15.0 15.0 15.0 15.0 15.0 15.0 15.0 15.0 15.0 15.0 15.0 15.0 15.0 15.0 15.0 15.0 15.0 15.0 15.0 15.0 15.0 15.0 15.0 15.0 14.6 4.8 0.2 3.0 14.0 7.8 15.0 15.0 15.0 9.8
15.0 15.0 15.0 13.5 15.0 15.0 15.0 15.0 15.0 15.0 15.0 15.0 15.0 15.0 15.0 15.0 15.0 15.0 15.0 15.0 15.0 15.0 15.0 15.0 15.0 15.0 15.0 15.0 15.0 15.0 15.0 15.0 15.0 15.0 15.0 15.0 15.0 13.4 8.6 10.0 15.0 15.0 15.0 15.0
15.0 15.0 15.0 15.0 15.0 15.0 15.0 15.0 15.0 15.0 15.0 15.0 15.0 15.0 15.0 15.0 15.0 15.0 15.0 15.0 15.0 15.0 15.0 15.0 15.0 15.0 15.0 15.0 15.0 15.0 15.0 15.0 15.0 15.0 15.0 15.0 15.0 15.0 15.0 15.0 14.9 15.0 15.0 15.0
15.0 15.0 1.2 13.5 1.1 15.0 15.0 15.0 15.0 15.0 15.0 15.0 15.0 15.0 15.0 15.0 15.0 15.0 15.0 15.0 15.0 15.0 15.0 15.0 15.0 15.0 15.0 15.0 15.0 15.0 15.0 15.0 15.0 15.0 15.0 15.0 15.0 15.0 15.0 15.0 15.0 15.0 15.0 15.0
15.0 15.0 15.0 15.0 15.0 8.4 15.0 15.0 15.0 15.0 15.0 15.0 15.0 15.0 15.0 15.0 15.0 15.0 15.0 15.0 15.0 15.0 15.0 15.0 15.0 15.0 15.0 15.0 15.0 15.0 15.0 15.0 15.0 15.0 15.0 15.0 15.0 15.0 15.0 15.0 15.0 11.2 9.9 15.0
15.0 15.0 15.0 15.0 15.0 4.3 15.0 15.0 15.0 15.0 15.0 15.0 15.0 15.0 15.0 15.0 15.0 15.0 15.0 15.0 15.0 15.0 15.0 8.5 15.0 15.0 15.0 15.0 15.0 15.0 15.0 15.0 15.0 15.0 15.0 15.0 15.0 15.0 15.0 15.0 15.0 15.0 15.0 15.0
15.0 15.0 15.0 15.0 0.7 0.3 14.1 15.0 15.0 15.0 15.0 15.0 15.0 15.0 15.0 15.0 15.0 15.0 15.0 15.0 15.0 15.0 15.0 15.0 15.0 6.5 15.0 15.0 15.0 15.0 15.0 15.0 15.0 15.0 15.0 15.0 15.0 15.0 15.0 15.0 15.0 15.0 15.0 15.0
15.0 15.0 15.0 15.0 13.1 0.1 0.5 15.0 15.0 15.0 15.0 15.0 15.0 15.0 15.0 15.0 15.0 15.0 15.0 15.0 15.0 11.7 15.0 15.0 15.0 15.0 15.0 15.0 15.0 15.0 15.0 15.0 15.0 15.0 15.0 15.0 15.0 15.0 15.0 3.2 5.0 12.6 12.5 15.0
15.0 15.0 15.0 15.0 15.0 0.4 8.9 12.6 14.9 15.0 15.0 15.0 15.0 15.0 15.0 15.0 15.0 15.0 6.0 14.3 5.2 4.1 14.6 15.0 15.0 15.0 15.0 15.0 15.0 15.0 15.0 15.0 15.0 15.0 15.0 12.8 15.0 15.0 8.7 15.0 10.8 9.1 4.6 3.8
15.0 14.2 2.5 0.0 0.1 0.2 1.7 15.0 4.3 8.4 15.0 15.0 15.0 15.0 15.0 15.0 15.0 7.9 14.6 2.7 7.0 13.3 15.0 15.0 15.0 15.0 15.0 15.0 15.0 15.0 15.0 15.0 15.0 13.9 4.7 14.7 5.0 12.6 15.0 8.9 15.0 13.9 0.4 2.4
15.0 2.5 0.1 0.1 0.1 0.1 0.9 2.6 6.5 15.0 15.0 15.0 15.0 15.0 15.0 15.0 15.0 15.0 6.0 14.9 15.0 15.0 15.0 15.0 15.0 15.0 15.0 15.0 15.0 4.5 14.3 15.0 5.3 4.1 3.6 3.5 8.5 13.9 4.6 5.4 10.2 3.8 1.5 1.7
8.8 1.2 0.1 0.1 0.1 0.1 0.2 2.0 3.2 15.0 15.0 15.0 15.0 15.0 15.0 15.0 10.1 15.0 2.6 7.3 15.0 15.0 15.0 15.0 15.0 12.0 15.0 15.0 1.1 10.6 15.0 15.0 6.7 4.1 4.2 3.7 2.8 9.4 7.7 2.9 1.5 0.6 2.0 15.0
0.7 0.5 0.4 0.1 0.1 0.1 0.1 0.1 2.4 15.0 15.0 15.0 15.0 15.0 15.0 15.0 15.0 15.0 15.0 15.0 15.0 15.0 15.0 12.4 13.4 15.0 15.0 1.7 6.1 15.0 15.0 13.1 4.1 4.1 3.6 4.1 14.3 4.4 3.0 0.7 1.0 2.2 6.8 4.4
2.9 0.2 0.2 0.1 0.1 0.1 0.1 3.3 15.0 15.0 15.0 15.0 15.0 15.0 15.0 15.0 15.0 15.0 15.0 15.0 15.0 9.3 8.8 15.0 15.0 15.0 3.3 14.2 15.0 4.8 5.2 4.1 3.2 3.4 14.2 7.3 4.8 6.0 8.3 1.9 2.2 4.3 14.3 14.2
15.0 14.4 7.6 12.9 15.0 15.0 15.0 15.0 15.0 15.0 15.0 15.0 15.0 15.0 15.0 15.0 15.0 15.0 15.0 15.0 15.0 5.4 2.0 15.0 15.0 13.1 15.0 15.0 13.5 15.0 13.0 2.8 9.2 15.0 15.0 2.4 1.8 3.9 3.3 13.4 15.0 14.6 15.0 15.0
2.7 5.7 15.0 15.0 15.0 15.0 15.0 15.0 15.0 15.0 15.0 15.0 15.0 15.0 7.7 10.7 14.6 14.1 15.0 15.0 15.0 9.8 1.3 1.5 10.7 13.9 15.0 15.0 15.0 15.0 15.0 6.6 15.0 15.0 4.3 3.1 15.0 4.1 8.5 15.0 15.0 15.0 15.0 10.8
0.3 1.0 11.7 15.0 15.0 15.0 15.0 15.0 15.0 15.0 15.0 15.0 15.0 15.0 15.0 15.0 10.6 15.0 15.0 15.0 12.5 1.4 1.0 1.3 6.4 15.0 15.0 15.0 15.0 15.0 15.0 15.0 15.0 15.0 1.7 10.8 5.2 10.8 15.0 13.9 15.0 15.0 2.4 0.6